GSAT-8 (GAGAN/PRN 127)

Last updated on Nov. 15, 2019, 4:21 a.m. UTC

1 37605U 11022A   19318.78199356  .00000098  00000-0  00000+0 0  9993
2 37605   0.0102 289.7706 0008468 325.8023 134.6482  1.00272954 31118
UTC
Height (km)
Latitude
Longitude
Inclination
Orbital Period
UTC large
Height (km)
Speed (km/s)
/
Latitude / Longitude
Inclination (degrees)
Orbital Period (minutes)
Azimuth
Elevation
Range (km)
Doppler Factor
iOS Compass Heading
iOS Angle

Next 30 passes for location: Hong Kong

Rise time Rise Azimuth (degrees) Set time Set Azimuth (degrees) Duration Max altitude (degrees)

No matching passes for this satellites